Flag for United Kingdom Weather past 2 weeks in Norwich, England, United Kingdom

Now
43 °F

Overcast.


Feels Like: 36 °F
Forecast: 38 / 50 °F
Wind: 14 mph from Southwest

Location: Norwich Weather Centre

Current Time: Dec 21, 2014 at 5:40:18 AM

Latest Report: Dec 21, 2014 at 5:20 AM


Visibility: N/A

Pressure: 30.30 "Hg

Humidity: 87%

Dew point: 39 °F

Location of NorwichLocation

Historic Weather in Norwich — Graph

°F

Norwich temperature yesterday

Maximum temperature yesterday: 46 °F (at 10:50 AM)
Minimum temperature yesterday: 41 °F (at 12:20 AM)
Average temperature yesterday: 44 °F

Past Weeks' High & Low Weather Summary

 TemperatureHumidityPressure
High57 °F (Dec 18, 10:50 AM)100% (Dec 6, 5:20 AM)30.36 "Hg (Dec 6, 5:20 AM)
Low28 °F (Dec 13, 8:50 AM)66% (Dec 7, 1:20 PM)29.12 "Hg (Dec 12, 6:20 AM)
Average42 °F87%29.87 "Hg
* Reported Dec 6 4:20 AM — Dec 21 4:20 AM, Norwich, Weather by CustomWeather, © 2014

Note: Actual official high and low records may vary slightly from our data, if they occured in-between our weather recording intervals... More about our weather records

Advertising

Norwich weather history for previous 24 hours

 ConditionsComfort  
Time TempWeatherWind HumidityBarometerVisibility
4:20 AM
Dec 21
41 °FPassing clouds.12 mph93%30.33 "HgN/A
3:50 AM41 °FPassing clouds.8 mph87%30.33 "HgN/A
3:20 AM41 °FPassing clouds.8 mph87%30.33 "HgN/A
2:50 AM41 °FPassing clouds.8 mph93%30.33 "HgN/A
2:20 AM41 °FQuite cool.10 mph93%30.36 "HgN/A
1:50 AM41 °FPassing clouds.10 mph93%30.36 "HgN/A
1:20 AM43 °FPassing clouds.12 mph87%30.36 "HgN/A
12:50 AM41 °FPassing clouds.13 mph93%30.36 "HgN/A
12:20 AM41 °FQuite cool.14 mph87%30.36 "HgN/A
11:50 PM
Dec 20
41 °FQuite cool.9 mph93%30.36 "HgN/A
11:20 PM41 °FQuite cool.9 mph87%30.36 "HgN/A
10:50 PM41 °FQuite cool.10 mph93%30.36 "HgN/A
10:20 PM41 °FQuite cool.10 mph93%30.36 "HgN/A
9:20 PM43 °FQuite cool.15 mph87%30.33 "HgN/A
8:50 PM43 °FClear.13 mph87%30.33 "Hg10 mi
8:20 PM41 °FClear.14 mph93%30.33 "Hg10 mi
7:50 PM41 °FClear.12 mph93%30.33 "Hg10 mi
7:20 PM41 °FPassing clouds.9 mph87%30.30 "HgN/A
6:50 PM43 °FClear.14 mph87%30.30 "Hg10 mi
6:20 PM43 °FClear.14 mph87%30.30 "Hg10 mi
5:50 PM43 °FPassing clouds.12 mph87%30.27 "HgN/A
5:20 PM45 °FClear.13 mph81%30.27 "Hg10 mi
4:50 PM45 °FPassing clouds.15 mph81%30.24 "HgN/A
4:20 PM45 °FPassing clouds.14 mph81%30.24 "HgN/A
3:50 PM45 °FPassing clouds.16 mph81%30.21 "HgN/A
3:20 PM46 °FPassing clouds.20 mph76%30.21 "HgN/A
2:50 PM46 °FPassing clouds.21 mph76%30.18 "HgN/A
2:20 PM46 °FPassing clouds.20 mph76%30.18 "HgN/A
1:50 PM46 °FPassing clouds.20 mph76%30.15 "HgN/A
1:20 PM46 °FPassing clouds.24 mph76%30.15 "HgN/A
12:50 PM46 °FPassing clouds.22 mph76%30.15 "HgN/A
12:20 PM46 °FPassing clouds.20 mph76%30.15 "HgN/A
11:50 AM46 °FScattered clouds.22 mph76%30.12 "HgN/A
11:20 AM46 °FScattered clouds.20 mph76%30.15 "HgN/A
10:50 AM46 °FScattered clouds.22 mph76%30.12 "HgN/A
10:20 AM45 °FScattered clouds.21 mph81%30.12 "HgN/A
9:50 AM45 °FLight rain. Scattered clouds.18 mph81%30.12 "HgN/A
9:20 AM45 °FScattered clouds.20 mph81%30.12 "HgN/A
8:50 AM45 °FScattered clouds.21 mph81%30.09 "HgN/A
8:20 AM43 °FPassing clouds.21 mph81%30.09 "HgN/A
7:50 AM43 °FSprinkles. Passing clouds.22 mph87%30.09 "HgN/A
7:20 AM45 °FPassing clouds.23 mph76%30.07 "HgN/A
6:50 AM43 °FPassing clouds.20 mph81%30.09 "HgN/A
6:20 AM43 °FPassing clouds.22 mph81%30.07 "HgN/A
5:50 AM43 °FPassing clouds.24 mph81%30.07 "HgN/A
5:20 AM43 °FPassing clouds.22 mph81%30.09 "HgN/A
Weather by CustomWeather, © 2014

See weather overviewHow to use our weather pages